Weather History for Harare Kutsaga, Zimbabwe

Change the Weather History Date:

Tuesday, November 27, 2012

  Actual Average Record
Temperature  
Mean Temperature 66 °F -  
Max Temperature 72 °F 79 °F 86 °F (2003)
Min Temperature 60 °F 60 °F 51 °F (2002)
Cooling Degree Days 1    
Growing Degree Days 16 (Base 50)    
Moisture  
Dew Point 59 °F    
Average Humidity 81    
Maximum Humidity 94    
Minimum Humidity 68    
Precipitation  
Precipitation 0.00 in 0.21 in - ()
Sea Level Pressure  
Sea Level Pressure 30.27 in    
Wind  
Wind Speed 9 mph ()    
Max Wind Speed 14 mph    
Max Gust Speed -    
Visibility 7.8 miles    
Events      
Averages and records for this station are not official NWS values.
T = Trace of Precipitation, MM = Missing Value Source: Averaged Metar Reports

Daily Weather History Graph

Daily Weather History Graph

Search for Another Location

Airport:

Trip Planner

Search our weather history database for the weather conditions in past years. The results will help you decide how hot, cold, wet, or windy it might be!

Date:

Astronomy

Nov. 27, 2012 Rise Set
Actual Time 5:10 AM CAT 6:16 PM CAT
Civil Twilight 4:46 AM CAT 6:39 PM CAT
Nautical Twilight 4:18 AM CAT 7:07 PM CAT
Astronomical Twilight 3:50 AM CAT 7:36 PM CAT
Moon 5:25 PM CAT (11/27) 4:09 AM CAT (11/27)
Length of Visible Light 13h 52m
Length of Day
13h 05m
Waxing Gibbous, 99% of the Moon is Illuminated
Nov 27
Waxing Gibbous
Nov 28
Full
Dec 6
Last Quarter
Dec 13
New
Dec 20
First Quarter

Hourly Weather History & Observations

Time (CAT) Temp. Dew Point Humidity Pressure Visibility Wind Dir Wind Speed Gust Speed Precip Events Conditions
1:00 AM 64.4 °F 60.8 °F 88% 30.24 in 6.2 mi SE 8.1 mph - N/A   Mostly Cloudy
2:00 AM 64 °F 60 °F 84%  in 19 mi SSE 6.9 mph - -   Mostly Cloudy
2:00 AM 64.4 °F 60.8 °F 88% 30.21 in 6.2 mi SSE 6.9 mph - N/A   Mostly Cloudy
4:00 AM 62.6 °F 60.8 °F 94% 30.21 in 6.2 mi SE 6.9 mph - N/A   Mostly Cloudy
5:00 AM 62.6 °F 60.8 °F 94% 30.24 in 6.2 mi SE 6.9 mph - N/A   Mostly Cloudy
6:00 AM 62.6 °F 60.8 °F 94% 30.27 in 6.2 mi SE 5.8 mph - N/A   Overcast
7:00 AM 64.4 °F 60.8 °F 88% 30.27 in 6.2 mi SE 9.2 mph - N/A   Overcast
8:00 AM 66.2 °F 60.8 °F 83% 30.30 in 6.2 mi SE 8.1 mph - N/A   Overcast
9:00 AM 66.2 °F 60.8 °F 83% 30.30 in 6.2 mi SE 12.7 mph - N/A   Mostly Cloudy
10:00 AM 68.0 °F 60.8 °F 78% 30.30 in 6.2 mi SE 11.5 mph - N/A   Mostly Cloudy
11:00 AM 69.8 °F 59.0 °F 68% 30.30 in 6.2 mi SE 11.5 mph - N/A   Mostly Cloudy
1:00 PM 71.6 °F 64.4 °F 78% 30.27 in 6.2 mi SE 12.7 mph - N/A   Overcast
2:00 PM 69 °F 61 °F 69%  in 19 mi SSE 13.8 mph - -   Overcast
2:00 PM 69.8 °F 60.8 °F 73% 30.24 in 6.2 mi SSE 13.8 mph - N/A   Mostly Cloudy
3:00 PM 68.0 °F 60.8 °F 78% 30.24 in 6.2 mi SE 12.7 mph - N/A   Mostly Cloudy
4:00 PM 66.2 °F 59.0 °F 78% 30.24 in 6.2 mi SSE 11.5 mph - N/A   Mostly Cloudy
5:00 PM 62.6 °F 59.0 °F 88% 30.27 in 6.2 mi SSE 11.5 mph - N/A   Mostly Cloudy
6:00 PM 60.8 °F 53.6 °F 77% 30.27 in 6.2 mi SE 12.7 mph - N/A   Mostly Cloudy
7:00 PM 60.8 °F 53.6 °F 77% 30.30 in 6.2 mi SE 13.8 mph - N/A   Mostly Cloudy
8:00 PM 61 °F 53 °F 69%  in 19 mi SE 11.5 mph - -   Scattered Clouds
8:00 PM 60.8 °F 53.6 °F 77% 30.33 in 6.2 mi SE 11.5 mph - N/A   Mostly Cloudy
9:00 PM 60.8 °F 53.6 °F 77% 30.33 in 6.2 mi SE 11.5 mph - N/A   Mostly Cloudy
10:00 PM 60.8 °F 53.6 °F 77% 30.36 in 6.2 mi SE 12.7 mph - N/A   Mostly Cloudy
11:00 PM 60.8 °F 55.4 °F 82% 30.21 in 6.2 mi SE 12.7 mph - N/A   Mostly Cloudy